Location: Billings, MT
(45.7828°N, 108.5373°W)
Time: 09:18:54
(UTC-07:00)

ARIANE 6 FM1 Upper Stage - Visible Passes

Search period start: 07 December 2025 00:00
Search period end: 17 December 2025 00:00
Orbit: 522 x 612 km, 62.0° (Epoch: 06 December)

Date Brightness Start Highest point End Pass type
(mag) Time Alt. Az. Time Alt. Az. Time Alt. Az.
07 Dec 5.1 17:31:06 10° WNW 17:34:27 26° WSW 17:37:49 10° S visible
08 Dec 5.8 17:32:02 10° WNW 17:34:46 18° WSW 17:37:31 10° SSW visible
09 Dec 6.3 17:33:27 10° W 17:35:03 12° WSW 17:36:38 10° SW visible
12 Dec 6.4 05:58:26 10° ESE 05:59:06 10° ESE 05:59:46 10° ESE visible
13 Dec 5.8 05:56:52 10° SSE 05:59:20 16° ESE 06:01:46 10° ENE visible
14 Dec 5.2 05:56:23 10° S 05:59:35 23° ESE 06:02:46 10° ENE visible
15 Dec 4.4 05:56:13 10° S 05:59:52 33° ESE 06:03:29 10° ENE visible
16 Dec 3.5 05:56:16 10° SSW 06:00:11 49° SE 06:04:03 10° NE visible
